Regional Weather Roundup
Issued by NWS

Home | Current Version | Previous Version | Graphics & Text | Print | Product List | Glossary On
Versions: 1 2 3 4 5 6 7 8 9 10 11 12 13 14 15 16 17 18 19 20 21 22 23 24 25 26 27 28
000
ASUS45 KPSR 191910
RWRAZ

ARIZONA HOURLY REGIONAL WEATHER ROUNDUP
NATIONAL WEATHER SERVICE PHOENIX AZ
1200 PM MST THU OCT 19 2017

NOTE: FAIR INDICATES FEW OR NO CLOUDS BELOW 12,000 FEET WITH NO
SIGNIFICANT WEATHER AND/OR OBSTRUCTIONS TO VISIBILITY.

AZZ001>003-036-192000-
NORTHWEST ARIZONA

CITY           SKY/WX    TMP DP  RH WIND       PRES   REMARKS
BULLHEAD CITY  FAIR      86  21   9 VRB3      29.80F
KINGMAN        FAIR      83  35  18 SW20      29.94F
$$

AZZ004>008-015-016-018-192000-
NORTH CENTRAL ARIZONA

CITY           SKY/WX    TMP DP  RH WIND       PRES   REMARKS
GRAND CANYON   FAIR      70  32  24 SW12G17   30.12F
WILLIAMS       FAIR      72  32  23 S12G18    30.12F
PRESCOTT       FAIR      77  35  21 S16       30.03F
FLAGSTAFF      FAIR      67  28  23 SW18G24   30.15F
PAYSON           N/A     70  34  26 VRB3      30.10F
PAGE           PTSUNNY   69  34  27 N7        30.00F
$$

AZZ009>014-017-192000-
NORTHEAST ARIZONA

CITY           SKY/WX    TMP DP  RH WIND       PRES   REMARKS
WINSLOW        LGT RAIN  66  46  48 SE9       30.07S
SAINT JOHNS    CLOUDY    71  36  27 NW15G24   30.09F
WINDOW ROCK    LGT RAIN  57  45  64 SW6G20    30.21R
SHOW LOW       FAIR      68  30  24 SW18      30.16F
$$

AZZ540-542>544-546-548-192000-
GREATER PHOENIX AREA

CITY           SKY/WX    TMP DP  RH WIND       PRES   REMARKS
PHOENIX        FAIR      90  40  17 SE7       29.81F
BUCKEYE        FAIR      86  72  62 CALM      29.82F
GLENDALE       MOSUNNY   90  41  18 E3        29.83
LUKE AFB       SUNNY     89  40  17 CALM      29.80F
DEER VALLEY    FAIR      88  37  16 SE10      29.83F
SCOTTSDALE     FAIR      88  39  17 SE8       29.85F
MESA-FALCON    MOSUNNY   90  39  17 SE9       29.85F
MESA-GATEWAY   PTSUNNY   86  39  19 S7        29.85F
CHANDLER       MOSUNNY   90  36  14 S6        29.83F
$$

AZZ539-553-192000-
SOUTHWEST MARICOPA COUNTY AND PINAL COUNTY

CITY           SKY/WX    TMP DP  RH WIND       PRES   REMARKS
CASA GRANDE    NOT AVBL
GILA BEND      MOSUNNY   90  43  19 S5        29.80F
$$

AZZ503-504-507>509-192000-
SOUTHEAST ARIZONA

CITY           SKY/WX    TMP DP  RH WIND       PRES   REMARKS
TUCSON         FAIR      88  38  17 CALM      29.93F
DAVIS-MONTHAN  PTSUNNY   90  34  13 VRB3      29.91F
RYAN FIELD     SUNNY     86  37  17 NE3       29.92F
NOGALES        FAIR      87  35  15 SW10      30.01F
SIERRA VISTA   PTSUNNY   84  28  13 NW5       30.05F
DOUGLAS        FAIR      84  30  14 S8G18     30.02F
SAFFORD        FAIR      84  45  25 MISG      29.95F
$$

AZZ532-192000-
SOUTHWEST ARIZONA

CITY           SKY/WX    TMP DP  RH WIND       PRES   REMARKS
YUMA           FAIR      91  36  14 W7        29.79F
$$

CAZ041-043-047-048-061-525>527-560>570-192000-
SOUTHERN CALIFORNIA

CITY           SKY/WX    TMP DP  RH WIND       PRES   REMARKS
DOWNTOWN L.A.  FAIR      77  59  53 CALM      29.91S
L.A. AIRPORT   PTSUNNY   71  62  73 W9        29.93R
SAN DIEGO      PTSUNNY   69  62  78 S7        29.94F
BURBANK        FAIR      74  55  51 CALM      29.92F
ONTARIO        PTSUNNY   74  55  51 VRB6      29.92F HAZE
RIVERSIDE      FAIR      73  57  57 W6        29.91F
PALM SPRINGS   FAIR      93  44  18 NW7       29.79F
EL CENTRO NAS  PTSUNNY   91  36  14 S8        29.78F
IMPERIAL       FAIR      92  33  12 S6        29.77F
BLYTHE         FAIR      88  32  13 VRB3      29.79F
NEEDLES        FAIR      86  19   8 VRB3      29.82F
$$

NVZ020-UTZ003-192000-
SOUTHERN NEVADA-UTAH

CITY           SKY/WX    TMP DP  RH WIND       PRES   REMARKS
LAS VEGAS      FAIR      82  22  11 NE5       29.86F
SALT LAKE CITY FAIR      68  32  26 N5        29.96F
$$

NMZ009-TXZ055-192000-
NEW MEXICO-WEST TEXAS

CITY           SKY/WX    TMP DP  RH WIND       PRES   REMARKS
ALBUQUERQUE    PTSUNNY   70  37  29 VRB5      30.12F
EL PASO        FAIR      79  51  37 S10       30.05F
$$


........................KEY........................
SKY/WX - SKY CONDITION/WEATHER
TMP    - TEMPERATURE IN FAHRENHEIT
DP     - DEW POINT IN FAHRENHEIT
RH     - RELATIVE HUMIDITY IN PERCENT
WIND   - DIRECTION AND SPEED IN MILES PER HOUR (MPH)
VRB    - VARIABLE WIND DIRECTION
PRES   - MEAN SEA LEVEL PRESSURE IN INCHES OF MERCURY
         F - FALLING PRESSURE   R - RISING PRESSURE
         S - STEADY PRESSURE
VSB    - VISIBILITY IN MILES
HX     - HEAT INDEX IN FAHRENHEIT
WCI    - WIND CHILL INDEX IN FAHRENHEIT
TC     - TEMPERATURE IN CELSIUS WHICH IS ALSO KNOWN AS
         TEMPERATURE IN CENTIGRADE
AFB    - AIR FORCE BASE
         LUKE AFB IS LUKE AIR FORCE BASE
         DAVIS-MONTHAN IS DAVIS-MONTHAN AIR FORCE BASE
NAS    - NAVAL AIR STATION
         EL CENTRO NAS IS EL CENTRO NAVAL AIR STATION
N/A    - NOT AVAILABLE





USA.gov is the U.S. government's official web portal to all federal, state and local government web resources and services.